GEFSMA_con_probscp_000.txt.gz
Probability
0 0 0 1 1 1 0 1 0 0 0 0 0 0 0 0 0 0 0 4 10 10 5 3 1 1 3 6 6 5 4 5 5 3 1 0 0 0 0 0 0 0 0
3 2 1 0 0 1 2 2 1 0 0 0 0 0 0 0 0 0 0 3 10 12 10 6 3 2 6 13 15 12 12 14 12 6 1 0 0 0 0 0 0 0 0
8 6 2 0 0 1 4 3 1 0 0 0 0 0 0 0 0 0 0 1 5 10 14 17 14 14 21 26 27 26 28 29 24 13 4 0 0 0 0 0 0 0 0
19 14 6 2 3 3 3 2 0 0 0 0 0 1 2 2 1 0 0 0 1 5 16 29 34 40 51 53 50 49 51 52 47 34 20 9 3 0 0 0 0 0 0
43 30 15 7 7 11 17 18 11 4 1 0 1 5 6 3 1 1 0 0 0 2 11 29 49 68 80 83 79 72 72 78 78 70 57 40 20 6 0 0 0 0 0
57 50 38 26 17 24 45 48 26 9 2 1 3 6 7 3 0 0 0 0 0 0 3 17 48 78 88 85 79 73 73 84 93 93 89 78 53 21 3 0 0 0 0
49 59 67 59 40 40 59 56 29 8 2 1 2 3 3 1 0 0 0 0 0 0 0 7 37 75 86 73 62 57 61 74 89 97 100 97 76 36 7 1 0 0 0
36 53 74 81 66 49 46 38 18 5 1 1 1 1 0 0 0 0 0 0 0 0 0 3 27 66 84 77 64 51 47 61 83 97 100 94 70 31 7 1 0 0 0
22 33 50 63 58 37 25 17 7 2 0 0 0 0 0 0 0 0 0 0 0 0 0 1 15 43 64 70 65 45 31 43 73 90 90 79 49 17 2 0 0 0 0
7 11 17 24 23 15 8 5 1 0 0 0 0 0 0 0 1 0 0 0 0 0 0 0 5 15 28 43 45 27 13 23 47 61 59 49 30 9 0 0 0 0 0
1 1 1 2 2 2 1 1 0 0 0 0 0 0 0 0 0 0 0 0 0 0 0 0 0 2 8 22 25 12 3 7 16 23 22 18 12 4 0 0 0 2 4
4 3 2 1 1 0 0 0 0 0 0 0 0 0 0 0 0 0 0 0 0 0 0 0 0 0 9 26 32 16 2 0 1 3 3 2 1 0 0 0 0 3 7
6 5 2 1 1 0 0 0 0 0 0 0 0 0 0 0 0 0 0 0 0 0 0 0 0 0 12 41 50 31 13 5 0 0 0 0 0 0 0 0 0 2 4
3 3 1 0 0 0 0 0 0 0 0 0 0 0 0 0 0 0 0 0 0 0 0 0 0 1 9 31 41 38 32 15 0 0 0 0 0 0 0 0 0 0 1
0 0 0 0 0 0 0 0 0 0 0 0 0 0 0 0 0 0 0 0 0 0 0 0 0 0 2 7 12 31 42 21 0 0 0 0 0 0 0 0 0 0 0
0 0 0 0 0 0 0 0 0 0 0 0 0 0 0 0 0 0 0 0 0 0 0 0 0 0 0 0 1 18 32 22 8 3 0 0 0 0 0 0 0 0 0
0 0 0 0 0 0 0 0 0 0 0 0 0 0 0 0 0 0 0 0 0 0 0 0 0 0 0 0 0 6 13 20 17 7 0 0 0 0 0 0 0 0 0
0 0 0 0 0 0 0 0 0 0 0 0 0 0 0 0 0 0 0 0 0 0 0 0 0 0 0 0 0 0 3 9 12 5 0 0 0 0 0 0 0 0 0
0 0 0 0 0 0 0 0 0 0 0 0 0 0 0 0 0 0 0 0 0 0 0 0 0 0 0 0 0 0 0 2 2 1 0 0 0 0 0 0 0 0 0
0 0 0 0 0 0 0 0 0 0 0 0 0 0 0 0 0 0 0 0 0 0 0 0 0 0 0 0 0 0 0 0 0 0 0 0 0 0 0 0 0 0 0
0 0 0 0 0 0 0 0 0 0 0 0 0 0 0 0 0 0 0 0 0 0 0 0 0 0 0 0 0 0 0 0 0 1 0 0 0 0 0 0 0 0 0
0 0 0 0 0 0 0 0 0 0 0 0 0 0 0 0 0 0 0 0 0 0 0 0 0 0 0 0 0 0 0 0 0 0 0 0 0 0 0 0 0 0 0
0 0 0 0 0 0 0 0 0 0 0 0 0 0 0 0 0 0 0 0 0 0 0 0 0 0 0 0 0 0 0 0 0 0 0 0 0 0 0 0 0 0 0
0 0 0 0 0 0 0 0 0 0 0 0 0 0 0 0 0 0 0 0 0 0 0 0 0 0 0 0 0 0 0 0 0 0 0 0 0 0 0 0 0 0 0
0 0 0 0 0 0 0 0 0 0 0 0 0 0 0 0 0 0 0 0 0 0 0 0 0 0 0 0 0 0 0 0 0 0 0 0 0 0 0 0 0 0 0
0 0 0 0 0 0 0 0 0 0 0 0 0 0 0 0 0 0 0 0 0 0 0 0 0 0 0 0 0 0 0 0 0 0 0 0 0 0 0 0 0 0 0

GEFSMA_con_probscp_006.txt.gz
Probability
61 67 84 93 80 70 78 87 86 76 61 51 40 22 10 9 17 32 45 46 51 69 83 72 44 21 12 10 9 5 2 0 0 1 0 0 0 0 0 0 0 0 0
82 85 93 96 86 73 74 85 90 88 82 76 62 41 28 29 43 62 68 62 61 73 86 83 62 40 26 20 18 15 9 5 4 4 2 0 0 0 0 0 0 0 0
98 99 100 100 95 87 83 87 93 96 96 92 81 68 63 68 78 89 91 83 77 81 90 93 85 71 53 37 30 30 27 17 11 11 6 1 0 0 0 0 0 0 0
100 100 100 100 100 98 96 95 96 96 96 93 89 87 89 92 93 94 95 93 91 90 94 96 96 91 79 60 46 48 50 36 23 17 10 3 0 0 0 0 0 0 0
100 100 100 100 100 100 100 99 99 98 98 96 95 95 95 93 89 86 86 87 83 80 86 94 98 98 94 83 72 69 69 59 41 28 20 14 9 3 0 0 0 0 0
100 100 99 99 99 99 100 100 100 100 100 100 99 96 91 83 76 70 73 75 63 52 62 82 94 97 98 96 92 88 83 75 63 49 42 42 39 25 10 2 0 0 0
99 98 95 94 95 97 99 100 100 100 100 100 99 95 88 76 59 52 60 69 56 35 37 55 74 88 96 98 96 91 86 82 79 73 70 72 75 64 38 13 2 0 0
97 95 92 89 89 92 95 98 99 99 99 99 96 93 89 80 62 50 59 71 65 42 24 27 44 68 84 91 87 76 69 70 74 80 85 90 93 90 71 36 11 1 0
95 91 86 85 86 87 91 96 98 97 94 88 82 78 77 77 70 61 61 66 64 48 26 19 26 40 58 74 72 53 41 39 44 61 80 92 96 97 88 65 34 12 4
89 83 78 81 85 86 87 89 88 85 76 62 51 46 49 54 52 45 40 40 40 33 27 25 24 22 29 45 46 31 16 11 14 31 56 73 84 93 93 83 64 39 21
79 72 68 74 81 80 76 71 66 58 45 30 21 18 22 27 23 15 11 10 10 12 17 21 19 11 11 17 20 13 4 1 2 10 23 37 51 70 84 86 77 59 42
71 63 57 63 71 70 61 52 42 29 19 11 6 5 8 11 8 2 0 0 0 3 7 10 8 4 2 3 4 2 0 0 0 1 5 10 17 34 54 62 58 48 40
67 57 46 47 54 55 47 36 23 13 6 3 1 1 3 4 2 0 0 0 0 1 2 3 2 0 0 0 0 0 0 0 0 0 1 1 2 8 18 24 24 22 21
51 44 33 28 29 29 25 17 9 4 2 1 0 0 1 1 0 0 0 0 0 0 0 1 0 0 0 0 0 0 0 0 0 0 0 0 0 0 1 3 4 5 5
26 23 17 12 10 7 6 3 2 1 0 0 0 0 0 0 0 0 0 0 0 0 0 0 0 0 0 0 0 0 0 0 0 0 0 0 0 0 0 0 0 0 0
9 8 6 4 2 0 0 0 0 0 0 0 0 0 0 0 0 0 0 0 0 0 0 0 0 0 0 0 0 0 0 0 0 0 0 0 0 0 0 0 0 0 0
3 4 3 2 1 0 0 0 0 0 0 0 0 0 0 0 0 0 0 0 0 0 0 0 0 0 0 0 0 0 0 0 0 0 0 0 0 0 0 0 0 0 0
1 1 1 1 0 0 0 0 0 0 0 0 0 0 0 0 0 0 0 0 0 0 0 0 0 0 0 0 0 0 0 0 0 0 0 0 0 0 0 0 0 0 0
0 0 0 0 0 0 0 0 0 0 0 0 0 0 0 0 0 0 0 0 0 0 0 0 0 0 0 0 0 0 0 0 0 0 0 0 0 0 0 0 0 0 0
0 0 0 0 0 0 0 0 0 0 0 0 0 0 0 0 0 0 0 0 0 0 0 0 0 0 0 0 0 0 0 0 0 0 0 0 0 0 0 0 0 0 0
0 0 0 0 0 0 0 0 0 0 0 0 0 0 0 0 0 0 0 0 0 0 0 0 0 0 0 0 0 0 0 0 0 0 0 0 0 0 0 0 0 0 0
0 0 0 0 0 0 0 0 0 0 0 0 0 0 0 0 0 0 0 0 0 0 0 0 0 0 0 0 0 0 0 0 0 0 0 0 0 0 0 0 0 0 0
0 0 0 0 0 0 0 0 0 0 0 0 0 0 0 0 0 0 0 0 0 0 0 0 0 0 0 0 0 0 0 0 0 0 0 0 0 0 0 0 0 0 0
0 0 0 0 0 0 0 0 0 0 0 0 0 0 0 0 0 0 0 0 0 0 0 0 0 0 0 0 0 0 0 0 0 0 0 0 0 0 0 0 0 0 0
0 0 0 0 0 0 0 0 0 0 0 0 0 0 0 0 0 0 0 0 0 0 0 0 0 0 0 0 0 0 0 0 0 0 0 0 0 0 0 0 0 0 0
0 0 0 0 0 0 0 0 0 0 0 0 0 0 0 0 0 0 0 0 0 0 0 0 0 0 0 0 0 0 0 0 0 0 0 0 0 0 0 0 0 0 0

GEFSMA_con_probscp_012.txt.gz
Probability
46 41 31 20 21 38 52 47 28 10 3 1 0 0 0 0 0 0 1 13 35 58 71 76 74 65 53 35 15 4 1 2 3 2 0 0 0 0 0 0 0 0 0
68 66 59 45 38 44 52 50 37 21 11 5 1 0 0 0 0 0 1 11 35 61 76 82 82 78 67 53 32 15 8 7 7 3 1 0 0 0 0 0 0 0 0
81 83 81 70 61 60 63 62 56 46 33 18 8 2 0 0 0 0 1 7 28 58 78 86 88 86 82 73 56 36 23 19 15 9 3 0 0 0 0 0 0 0 0
65 70 74 73 74 79 81 79 77 72 60 40 20 6 2 1 1 1 2 6 23 51 73 83 84 81 77 70 58 45 36 30 28 25 15 5 0 0 0 0 0 0 0
49 60 70 75 83 91 92 90 89 85 75 57 35 16 6 3 1 2 3 7 20 42 61 70 72 68 57 46 38 33 30 28 31 40 38 22 7 1 0 0 0 0 0
58 70 80 84 89 92 93 91 89 85 76 62 44 24 10 3 2 3 5 6 11 23 38 47 51 47 36 25 19 19 18 17 21 37 53 49 25 6 0 0 0 0 0
70 77 84 85 85 86 88 88 85 78 70 61 47 26 9 3 2 4 5 5 5 8 16 22 26 26 22 16 13 13 13 10 11 22 43 54 38 13 1 0 0 0 0
57 64 72 73 74 77 78 77 74 66 57 52 42 22 6 1 2 3 4 5 4 3 5 7 8 9 11 12 9 8 8 7 6 10 20 31 28 13 2 0 0 0 1
32 40 51 56 60 62 60 55 51 47 40 36 29 15 4 0 1 1 2 3 2 1 2 2 1 1 3 4 4 3 2 2 2 4 5 8 9 6 1 0 0 0 1
13 18 26 33 38 39 36 29 24 24 23 20 15 10 3 0 0 0 0 1 0 0 0 0 0 0 0 0 0 0 0 0 0 1 1 1 1 1 0 0 0 0 1
4 6 9 13 17 18 16 11 8 9 11 10 8 6 3 0 0 0 0 0 0 0 0 0 0 0 0 0 0 0 0 0 0 0 0 0 0 0 0 0 0 0 0
1 1 2 3 5 6 6 3 2 2 3 4 4 3 1 0 0 0 0 0 0 0 0 0 0 0 0 0 0 0 0 0 0 0 0 0 0 0 0 0 0 0 0
1 1 1 1 1 1 1 0 0 0 1 1 1 1 0 0 0 0 0 0 0 0 0 0 0 0 0 0 0 0 0 0 0 0 0 0 0 0 0 0 0 0 0
0 0 0 0 0 0 0 0 0 0 0 0 0 0 0 0 0 0 0 0 0 0 0 0 0 0 0 0 0 0 0 0 0 0 0 0 0 0 0 0 0 0 0
0 0 0 0 0 0 0 0 0 0 1 0 0 0 0 0 0 0 0 0 0 0 0 0 0 0 0 0 0 0 0 0 0 0 0 0 0 0 0 0 0 0 0
0 0 0 0 0 0 0 0 0 0 0 0 0 0 0 0 0 0 0 0 0 0 0 0 0 0 0 0 0 0 0 0 0 0 0 0 0 0 0 0 0 0 0
0 0 0 0 0 0 0 0 0 0 0 0 0 0 0 0 0 0 0 0 0 0 0 0 0 0 0 0 0 0 0 0 0 0 0 0 0 0 0 0 0 0 0
0 0 0 0 0 0 0 0 0 0 0 0 0 0 0 0 0 0 0 0 0 0 0 0 0 0 0 0 0 0 0 0 0 0 0 0 0 0 0 0 0 0 0
0 0 0 0 0 0 0 0 0 0 0 0 0 0 0 0 0 0 0 0 0 0 0 0 0 0 0 0 0 0 0 0 0 0 0 0 0 0 0 0 0 0 0
0 0 0 0 0 0 0 0 0 0 0 0 0 0 0 0 0 0 0 0 0 0 0 0 0 0 0 0 0 0 0 0 0 0 0 0 0 0 0 0 0 0 0
0 0 0 0 0 0 0 0 0 0 0 0 0 0 0 0 0 0 0 0 0 0 0 0 0 0 0 0 0 0 0 0 0 0 0 0 0 0 0 0 0 0 0
0 0 0 0 0 0 0 0 0 0 0 0 0 0 0 0 0 0 0 0 0 0 0 0 0 0 0 0 0 0 0 0 0 0 0 0 0 0 0 0 0 0 0
0 0 0 0 0 0 0 0 0 0 0 0 0 0 0 0 0 0 0 0 0 0 0 0 0 0 0 0 0 0 0 0 0 0 0 0 0 0 0 0 0 0 0
0 0 0 0 0 0 0 0 0 0 0 0 0 0 0 0 0 0 0 0 0 0 0 0 0 0 0 0 0 0 0 0 0 0 0 0 0 0 0 0 0 0 0
0 0 0 0 0 0 0 0 0 0 0 0 0 0 0 0 0 0 0 0 0 0 0 0 0 0 0 0 0 0 0 0 0 0 0 0 0 0 0 0 0 0 0
0 0 0 0 0 0 0 0 0 0 0 0 0 0 0 0 0 0 0 0 0 0 0 0 0 0 0 0 0 0 0 0 0 0 0 0 0 0 0 0 0 0 0

GEFSMA_con_probscp_018.txt.gz
Probability
79 65 47 35 30 34 39 40 36 27 20 17 17 12 5 1 1 0 0 0 0 0 0 0 0 0 0 1 1 1 0 1 1 1 0 0 0 0 0 0 0 0 0
82 73 58 45 44 51 57 57 49 39 30 24 19 14 10 7 4 2 1 1 0 0 0 0 0 0 1 3 4 4 3 2 2 1 0 0 0 0 0 0 0 0 0
76 75 66 57 60 71 76 72 62 52 45 39 32 26 25 22 14 7 4 2 1 1 0 0 1 1 2 6 11 14 16 14 9 3 0 0 0 0 0 0 0 0 0
67 67 65 63 70 82 88 82 74 68 63 58 53 47 46 41 27 15 8 4 2 2 1 2 4 5 6 10 16 25 32 33 26 15 5 1 0 0 0 0 0 0 0
58 61 64 67 75 87 93 90 87 83 78 72 66 61 59 53 39 23 12 6 3 2 2 5 7 8 9 16 25 34 40 45 42 30 15 6 1 0 0 0 0 0 0
42 49 56 63 73 81 85 86 85 85 84 79 70 61 57 51 42 29 16 8 3 2 3 6 9 11 15 23 33 40 45 50 50 39 26 15 5 1 0 0 0 0 0
22 27 35 45 56 62 66 70 73 76 80 79 70 56 43 33 29 25 19 11 5 3 4 5 7 12 21 28 33 40 50 59 54 40 29 18 8 1 0 0 0 0 0
7 10 15 24 34 40 45 51 57 64 69 69 63 48 29 16 12 12 14 11 6 4 3 2 5 10 18 28 29 31 46 60 55 39 23 13 5 1 0 0 0 0 0
1 2 5 10 18 24 29 33 42 53 60 60 55 43 25 12 5 3 5 6 5 3 1 1 2 4 9 17 19 19 29 42 45 36 22 9 2 0 0 0 0 0 0
0 0 1 3 8 12 15 19 28 43 54 56 50 39 26 14 6 1 1 2 2 1 0 0 1 1 3 6 7 7 10 17 24 26 20 8 2 0 0 0 0 0 0
0 0 0 0 2 5 7 9 13 25 40 45 41 31 21 13 7 2 1 1 1 0 0 0 0 0 1 2 2 1 1 3 6 10 9 5 2 1 1 1 1 0 0
0 0 0 0 0 2 3 3 3 9 19 25 23 18 13 8 5 3 1 0 0 0 0 0 0 0 0 1 1 0 0 0 0 1 1 1 1 1 1 1 0 0 0
0 0 0 0 0 0 0 0 0 2 5 7 7 6 5 4 3 2 1 0 0 0 0 0 0 0 0 0 0 0 0 0 0 0 0 0 0 1 1 0 0 0 0
0 0 0 0 0 0 0 0 0 0 1 1 0 1 1 1 1 1 1 0 0 0 0 0 0 0 0 0 0 0 0 0 0 0 0 0 0 0 0 0 0 0 0
0 0 0 0 0 0 0 0 0 0 0 0 0 0 0 0 0 0 0 0 0 0 0 0 0 0 0 0 0 0 0 0 0 0 0 0 0 0 0 0 0 0 0
0 0 0 0 0 0 0 0 0 0 0 0 0 0 0 0 0 0 0 0 0 0 0 0 0 0 0 0 0 0 0 0 0 0 0 0 0 0 0 0 0 0 0
0 0 0 0 0 0 0 0 0 0 0 0 0 0 0 0 0 0 0 0 0 0 0 0 0 0 0 0 0 0 0 0 0 0 0 0 0 0 0 0 0 0 0
0 0 0 0 0 0 0 0 0 0 0 0 0 0 0 0 0 0 0 0 0 0 0 0 0 0 0 0 0 0 0 0 0 0 0 0 0 0 0 0 0 0 0
0 0 0 0 0 0 0 0 0 0 0 0 0 0 0 0 0 0 0 0 0 0 0 0 0 0 0 0 0 0 0 0 0 0 0 0 0 0 0 0 0 0 0
0 0 0 0 0 0 0 0 0 0 0 0 0 0 0 0 0 0 0 0 0 0 0 0 0 0 0 0 0 0 0 0 0 0 0 0 0 0 0 0 0 0 0
0 0 0 0 0 0 0 0 0 0 0 0 0 0 0 0 0 0 0 0 0 0 0 0 0 0 0 0 0 0 0 0 0 0 0 0 0 0 0 0 0 0 0
0 0 0 0 0 0 0 0 0 0 0 0 0 0 0 0 0 0 0 0 0 0 0 0 0 0 0 0 0 0 0 0 0 0 0 0 0 0 0 0 0 0 0
0 0 0 0 0 0 0 0 0 0 0 0 0 0 0 0 0 0 0 0 0 0 0 0 0 0 0 0 0 0 0 0 0 0 0 0 0 0 0 0 0 0 0
0 0 0 0 0 0 0 0 0 0 0 0 0 0 0 0 0 0 0 0 0 0 0 0 0 0 0 0 0 0 0 0 0 0 0 0 0 0 0 0 0 0 0
0 0 0 0 0 0 0 0 0 0 0 0 0 0 0 0 0 0 0 0 0 0 0 0 0 0 0 0 0 0 0 0 0 0 0 0 0 0 0 0 0 0 0
0 0 0 0 0 0 0 0 0 0 0 0 0 0 0 0 0 0 0 0 0 0 0 0 0 0 0 0 0 0 0 0 0 0 0 0 0 0 0 0 0 0 0

GEFSMA_con_probscp_024.txt.gz
Probability
69 68 70 72 73 71 71 69 65 61 57 46 32 22 20 26 38 46 52 61 58 36 13 4 3 3 4 3 2 1 2 4 6 5 3 3 4 5 4 2 1 0 0
47 47 49 55 61 68 75 76 70 66 65 57 46 40 40 43 51 55 54 56 56 41 23 12 9 9 11 9 6 5 6 9 12 12 8 6 6 7 6 5 3 2 1
21 23 27 36 51 66 78 82 79 77 77 73 66 65 68 69 68 66 62 59 55 48 38 28 22 21 19 15 13 14 19 24 28 27 22 16 12 10 9 7 6 3 1
10 13 18 25 38 55 68 76 82 86 87 86 83 82 85 85 80 74 70 66 62 58 53 46 41 37 27 21 23 31 38 44 49 50 45 38 29 20 13 8 6 3 1
6 8 11 14 20 31 44 57 71 83 89 90 89 88 89 90 87 82 77 73 70 66 60 58 56 48 34 29 36 46 53 60 68 71 68 64 58 44 28 15 7 2 1
3 4 5 5 7 12 21 34 50 64 74 81 81 81 82 84 86 87 85 81 75 68 63 64 63 54 42 36 38 47 56 65 75 80 80 81 80 72 53 31 13 2 0
3 3 2 1 2 4 9 17 28 37 47 58 63 63 62 66 73 80 83 82 77 72 69 68 67 64 54 40 33 37 47 60 71 79 83 87 89 85 74 53 25 6 0
3 3 2 0 0 2 4 7 13 17 23 35 45 46 43 43 50 61 73 79 78 76 73 71 72 72 65 55 41 33 37 50 63 76 85 89 88 85 78 65 40 14 2
1 1 1 0 0 1 1 4 7 10 13 21 35 45 39 31 33 44 62 74 77 77 75 73 72 70 68 68 59 42 35 42 54 69 84 87 81 73 66 61 49 26 10
1 0 0 0 0 0 0 2 4 7 10 15 29 44 44 38 37 38 49 63 71 75 75 75 72 70 70 74 69 50 34 32 38 52 68 75 70 60 52 49 46 33 21
2 1 0 0 0 0 0 1 2 5 8 11 21 32 42 48 48 41 38 48 62 70 75 78 77 75 74 72 64 43 23 15 17 26 39 48 51 48 43 40 37 29 22
2 1 0 0 0 0 0 0 2 3 4 8 14 23 33 43 47 43 37 40 53 66 75 79 76 72 68 61 46 25 9 3 3 7 13 20 26 30 30 30 26 21 18
1 0 0 0 0 0 0 0 2 3 3 4 9 17 27 33 38 44 43 41 50 65 74 71 62 55 52 46 29 10 2 0 0 0 2 4 8 10 12 14 14 13 13
2 1 1 0 0 0 0 0 1 3 3 3 5 10 19 25 32 42 47 49 55 67 70 57 43 36 36 31 16 5 1 0 0 0 0 0 1 1 2 3 4 5 5
9 6 3 1 0 0 0 0 0 1 2 2 3 6 11 18 24 34 44 54 62 69 65 47 30 23 22 17 8 4 2 1 0 0 0 0 0 0 0 0 0 0 0
20 15 8 3 0 0 0 0 0 0 1 1 2 3 5 10 16 24 35 49 62 67 57 37 21 14 11 8 5 4 3 1 0 0 0 0 0 0 0 0 0 0 0
32 23 13 5 1 0 0 0 0 0 0 0 1 1 1 4 9 16 25 38 52 57 43 23 11 7 5 4 4 3 1 0 0 0 0 0 0 0 0 0 0 0 0
37 28 17 10 3 0 0 0 0 0 0 0 0 0 0 1 5 11 18 26 34 35 25 12 4 3 3 2 2 2 1 0 0 0 0 0 0 0 0 0 0 0 0
37 29 22 16 7 1 0 0 0 0 0 0 0 0 0 1 3 6 9 13 15 14 10 5 1 1 1 1 1 1 0 0 0 0 0 0 0 0 0 0 0 0 0
30 27 25 20 11 3 0 0 0 0 0 0 0 0 0 0 1 2 3 4 4 4 3 1 0 0 0 0 0 0 0 0 0 0 0 0 0 0 0 0 0 0 0
20 22 23 20 13 4 0 0 0 0 0 0 0 0 0 0 0 0 0 1 2 1 0 0 0 0 0 0 0 0 0 0 0 0 0 0 0 0 0 0 0 0 0
12 15 17 16 11 4 0 0 0 0 0 0 0 0 0 0 0 0 0 1 1 0 0 0 0 0 0 0 0 0 0 0 0 0 0 0 0 0 0 0 0 0 0
5 7 10 12 10 4 0 0 0 0 0 0 0 0 0 0 0 0 0 0 0 0 0 0 0 0 0 0 0 0 0 0 0 0 0 0 0 0 0 0 0 0 0
1 1 4 8 9 4 0 0 0 0 0 0 0 0 0 0 0 0 0 0 0 0 0 0 0 0 0 0 0 0 0 0 0 0 0 0 0 0 0 0 0 0 0
0 0 1 4 6 4 1 0 0 0 0 0 0 0 0 0 0 0 0 0 0 0 0 0 0 0 0 0 0 0 0 0 0 0 0 0 0 0 0 0 0 0 0
0 0 0 1 4 4 1 0 0 0 0 0 0 0 0 0 0 0 0 0 0 0 0 0 0 0 0 0 0 0 0 0 0 0 0 0 0 0 0 0 0 0 0

GEFSMA_con_probscp_030.txt.gz
Probability
74 71 72 67 60 63 71 77 78 77 76 72 66 63 62 66 71 81 90 94 95 96 98 95 83 61 36 18 11 11 10 8 6 6 6 6 5 3 2 2 1 0 0
76 68 65 64 61 63 68 72 76 77 75 73 70 66 64 64 67 75 83 89 91 93 96 95 87 70 50 32 23 20 21 21 18 12 8 6 5 4 3 4 3 1 1
70 60 54 55 58 58 58 63 69 73 75 77 79 77 72 68 65 67 72 78 84 89 93 94 90 81 71 58 47 43 44 44 37 27 18 12 8 6 6 6 5 3 2
48 40 34 37 42 41 39 43 54 64 70 75 81 81 79 76 71 66 64 68 76 83 89 91 90 87 83 78 72 68 67 65 56 45 37 30 23 17 11 8 6 4 3
23 19 14 15 18 18 18 21 33 48 56 58 58 62 71 76 76 72 68 66 71 78 83 87 89 88 86 85 84 82 78 76 70 63 59 56 49 37 25 16 11 8 6
10 8 5 3 5 7 7 8 15 26 33 32 28 32 46 59 69 73 73 71 71 75 78 82 86 88 86 83 82 82 81 81 78 75 75 75 72 62 48 34 25 19 16
8 6 3 1 2 3 3 3 4 8 11 13 13 15 20 33 48 61 71 76 75 73 74 78 83 87 86 80 74 72 74 79 82 81 81 83 82 78 69 55 42 33 30
12 8 4 3 2 1 1 1 1 1 2 5 9 9 8 13 24 36 53 70 76 77 75 74 78 82 85 82 72 62 61 69 76 80 82 84 85 83 79 70 58 47 42
21 14 7 5 3 1 0 0 1 1 1 2 4 7 6 6 8 15 28 46 66 78 79 74 71 75 83 86 79 65 59 63 70 75 78 81 82 79 77 75 71 62 53
28 22 14 10 6 2 1 1 2 3 2 1 2 4 5 4 3 4 10 22 43 66 76 76 71 72 80 83 79 72 65 64 65 67 69 71 72 71 69 72 76 72 66
39 35 30 25 16 8 4 4 5 6 4 2 2 2 3 2 1 1 2 8 23 46 65 76 78 78 78 75 67 59 54 51 50 50 51 53 58 63 64 68 71 70 69
60 56 53 49 36 19 9 7 7 8 7 6 5 4 3 1 0 0 0 2 10 28 51 71 82 83 78 64 46 34 28 25 25 26 27 30 38 46 52 58 59 59 59
79 77 73 67 53 34 18 11 9 8 8 7 7 6 5 2 1 0 0 0 4 16 38 61 77 83 75 53 30 15 10 8 8 9 9 10 15 21 27 33 36 38 39
88 87 83 76 66 49 32 21 14 8 6 6 5 5 5 4 2 1 1 0 1 8 23 43 61 70 62 40 19 8 4 2 2 2 1 1 2 4 6 9 11 14 14
85 86 85 81 74 64 51 37 23 12 7 6 6 6 6 4 3 3 2 1 0 3 11 25 40 48 42 24 10 5 2 0 0 0 0 0 0 0 0 0 1 1 1
72 77 82 82 78 72 64 50 33 20 13 10 8 7 5 2 3 3 3 1 1 2 6 13 23 27 24 14 6 3 1 0 0 0 0 0 0 0 0 0 0 0 0
43 53 67 76 77 73 68 56 39 25 17 10 6 4 2 1 2 3 3 2 2 3 4 6 10 14 14 10 4 1 0 0 0 0 0 0 0 0 0 0 0 0 0
14 22 38 55 66 70 68 58 40 24 17 10 5 3 1 1 2 2 2 1 1 2 1 1 2 5 7 6 2 0 0 0 0 0 0 0 0 0 0 0 0 0 0
2 5 12 26 44 59 62 54 39 25 18 13 9 5 1 0 1 1 1 1 1 1 0 0 0 2 3 3 1 0 0 0 0 0 0 0 0 0 0 0 0 0 0
1 1 2 7 20 34 43 43 38 29 22 17 12 6 2 0 0 1 2 2 2 1 0 0 0 1 2 1 0 0 0 0 0 0 0 0 0 0 0 0 0 0 0
0 0 0 1 5 12 19 25 28 26 24 20 13 8 3 0 0 1 1 1 1 1 0 0 0 1 1 0 0 0 0 0 0 0 0 0 0 0 0 0 0 0 0
0 0 0 0 1 2 4 7 11 16 21 20 14 9 3 0 0 0 0 0 0 0 0 0 0 0 0 0 0 0 0 0 0 0 0 0 0 0 0 0 0 0 0
0 0 0 0 0 0 0 0 1 7 15 18 15 9 3 0 0 0 0 0 0 0 0 0 0 0 0 0 0 0 0 0 0 0 0 0 0 0 0 0 0 0 0
1 0 0 0 0 0 0 0 0 3 8 12 11 7 3 1 0 0 0 0 0 0 0 0 0 0 0 0 0 0 0 0 0 0 0 0 0 0 0 0 0 0 0
1 0 0 0 0 0 0 0 0 1 3 5 5 3 2 1 0 0 0 0 0 0 0 0 0 0 0 0 0 0 0 0 0 0 0 0 0 0 0 0 0 0 0
1 0 0 0 0 0 0 0 0 1 1 1 2 1 1 0 0 0 0 0 0 0 0 0 0 0 0 0 0 0 0 0 0 0 0 0 0 0 0 0 0 0 0

GEFSMA_con_probscp_036.txt.gz
Probability
4 2 1 0 1 4 6 4 4 6 6 7 9 8 4 2 5 9 9 6 4 7 16 29 43 52 53 51 43 30 17 9 4 1 0 0 0 0 0 0 0 0 0
9 5 2 0 1 3 4 3 2 3 3 4 5 4 3 2 4 6 7 6 6 7 14 26 40 48 50 48 41 30 18 10 5 2 0 0 0 0 0 0 0 0 0
13 8 2 0 0 1 2 2 1 1 1 1 2 2 2 2 3 4 5 6 7 8 11 19 30 38 42 40 36 30 22 14 9 4 1 0 0 0 0 0 0 0 0
10 6 2 0 0 0 1 1 1 0 0 0 1 1 1 1 2 2 3 5 8 11 13 16 21 28 32 30 26 25 23 18 12 7 3 1 0 0 0 0 0 0 0
6 4 1 0 0 0 0 0 0 0 0 0 0 0 0 0 0 1 1 3 7 12 16 17 19 23 22 19 17 17 19 19 16 10 6 3 2 1 1 0 0 0 0
3 2 1 0 0 0 0 0 0 0 0 0 0 0 0 0 0 0 0 1 4 9 12 17 24 26 21 15 12 13 17 19 19 17 12 8 5 3 2 1 0 0 0
2 1 0 0 0 0 0 0 0 0 0 0 0 0 0 0 0 0 0 1 2 5 7 15 26 31 27 19 13 12 14 17 20 21 18 13 10 8 4 1 0 0 0
2 1 0 0 0 0 0 0 0 0 0 0 0 0 0 0 0 0 0 0 1 3 5 11 21 28 29 27 18 11 9 11 16 20 19 16 15 13 7 2 0 0 0
2 1 0 0 0 0 0 0 0 0 0 0 0 0 0 0 0 0 0 0 0 1 2 4 10 16 23 27 24 15 9 9 12 16 18 18 16 13 9 5 3 2 2
1 0 0 0 0 0 0 0 0 0 0 0 0 0 0 0 0 0 0 0 0 0 0 1 3 7 13 19 20 16 12 11 12 17 19 19 15 11 9 8 7 6 5
1 0 0 0 0 0 0 0 0 0 0 0 0 0 0 0 0 0 0 0 0 0 0 0 0 2 5 8 11 12 11 11 12 16 17 15 14 12 11 10 10 9 8
1 1 1 1 1 1 0 0 0 0 0 0 0 0 0 0 0 0 0 0 0 0 0 0 0 0 1 3 6 8 8 8 8 8 8 8 10 11 13 13 13 11 10
1 2 2 1 2 2 1 1 1 0 0 0 0 0 0 0 0 0 0 0 0 0 0 0 0 0 0 1 4 6 6 6 4 2 3 4 6 8 11 12 12 11 10
0 1 1 1 2 2 2 2 1 0 0 0 0 0 0 0 0 0 0 0 0 0 0 0 0 0 0 0 2 4 5 4 2 1 2 2 3 5 6 7 7 6 6
0 0 0 0 1 1 2 1 1 0 0 0 0 0 0 0 0 0 0 0 0 0 0 0 0 0 0 0 0 1 2 1 0 0 0 0 1 1 2 2 1 1 1
0 0 0 0 0 0 0 0 0 0 0 0 0 0 0 0 0 0 0 0 0 0 0 0 0 0 0 0 0 0 0 0 0 0 0 0 0 0 0 0 0 0 0
0 0 0 0 0 0 0 0 0 0 0 0 0 0 0 0 0 0 0 0 0 0 0 0 0 0 0 0 0 0 0 0 0 0 0 0 0 0 0 0 0 0 0
0 0 0 0 0 0 0 0 0 0 0 0 0 0 0 0 0 0 0 0 0 0 0 0 0 0 0 0 0 0 0 0 0 0 0 0 0 0 0 0 0 0 0
0 0 0 0 0 0 0 0 0 0 0 0 0 0 0 0 0 0 0 0 0 0 0 0 0 0 0 0 0 0 0 0 0 0 0 0 0 0 0 0 0 0 0
0 0 0 0 0 0 0 0 0 0 0 0 0 0 0 0 0 0 0 0 0 0 0 0 0 0 0 0 0 0 0 0 0 0 0 0 0 0 0 0 0 0 0
0 0 0 0 0 0 0 0 0 0 0 0 0 0 0 0 0 0 0 0 0 0 0 0 0 0 0 0 0 0 0 0 0 0 0 0 0 0 0 0 0 0 0
0 0 0 0 0 0 0 0 0 0 0 0 0 0 0 0 0 0 0 0 0 0 0 0 0 0 0 0 0 0 0 0 0 0 0 0 0 0 0 0 0 0 0
0 0 0 0 0 0 0 0 0 0 0 0 0 0 0 0 0 0 0 0 0 0 0 0 0 0 0 0 0 0 0 0 0 0 0 0 0 0 0 0 0 0 0
0 0 0 0 0 0 0 0 0 0 0 0 0 0 0 0 0 0 0 0 0 0 0 0 0 0 0 0 0 0 0 0 0 0 0 0 0 0 0 0 0 0 0
0 0 0 0 0 0 0 0 0 0 0 0 0 0 0 0 0 0 0 0 0 0 0 0 0 0 0 0 0 0 0 0 0 0 0 0 0 0 0 0 0 0 0
0 0 0 0 0 0 0 0 0 0 0 0 0 0 0 0 0 0 0 0 0 0 0 0 0 0 0 0 0 0 0 0 0 0 0 0 0 0 0 0 0 0 0

GEFSMA_con_probscp_042.txt.gz
Probability
34 25 13 7 5 3 1 2 2 2 3 5 4 3 3 4 3 2 2 1 0 1 1 2 4 6 6 5 9 15 21 25 26 20 12 4 1 2 2 1 0 0 0
36 27 15 9 6 3 1 1 2 2 2 4 5 3 3 3 1 1 1 0 0 0 0 2 5 7 6 6 9 16 23 29 31 27 18 9 4 2 1 0 0 0 0
32 25 16 10 6 4 2 1 1 1 1 2 3 2 2 1 0 0 0 0 0 0 0 2 5 7 7 6 8 14 21 27 32 31 25 17 8 3 0 0 0 0 0
24 21 15 10 6 3 1 0 0 0 0 1 1 0 0 0 0 0 0 0 0 0 0 1 4 5 5 5 7 12 17 22 27 30 28 22 12 5 2 0 0 0 0
21 19 14 9 5 2 0 0 0 0 0 0 0 0 0 0 0 0 0 0 0 0 0 0 2 3 3 5 9 15 19 24 27 28 27 24 16 9 4 1 0 0 0
19 16 11 6 2 0 0 0 0 0 0 0 0 0 0 0 0 0 0 0 0 0 0 0 1 2 3 7 14 22 28 32 32 30 27 24 20 14 8 3 1 1 0
13 11 7 3 1 0 0 0 0 0 0 0 0 0 0 0 0 0 0 0 0 0 0 0 0 1 4 7 13 22 31 37 39 36 29 25 25 21 13 6 3 1 1
6 5 3 2 0 0 0 0 0 0 0 0 0 0 0 0 0 0 0 0 0 0 0 0 0 1 3 5 7 13 24 34 40 38 30 27 28 25 18 12 6 2 0
1 1 1 1 0 0 0 0 0 0 0 0 0 0 0 0 0 0 0 0 0 0 0 0 0 0 1 2 3 6 13 23 31 33 30 28 27 24 19 16 10 4 1
0 0 0 0 0 0 0 0 0 0 0 0 0 0 0 0 0 0 0 0 0 0 0 0 0 0 0 1 2 2 5 11 21 28 32 31 26 22 19 18 16 11 8
0 0 0 0 0 0 0 0 0 0 0 0 0 0 0 0 0 0 0 0 0 0 0 0 0 0 0 0 1 1 1 4 12 22 28 29 26 23 22 22 24 24 22
0 0 0 0 0 0 0 0 0 0 0 0 0 0 0 0 0 0 0 0 0 0 0 0 0 0 0 0 1 1 0 2 6 11 16 20 23 22 20 21 26 30 33
0 0 0 0 0 0 0 0 0 0 0 0 0 0 0 0 0 0 0 0 0 0 0 0 0 0 0 0 0 0 0 0 1 3 5 9 13 14 12 12 16 22 27
0 0 0 0 0 0 0 0 0 0 0 1 1 0 0 0 0 0 0 0 0 0 0 0 0 0 0 0 0 0 0 0 0 0 1 3 4 6 5 5 6 10 12
0 0 0 0 0 0 0 0 0 0 1 2 2 1 1 0 0 0 0 0 0 0 0 0 0 0 0 0 0 0 0 0 0 0 0 0 1 2 2 1 1 2 3
0 0 0 0 0 0 0 0 0 0 1 2 3 3 2 1 0 0 0 0 0 0 0 0 0 0 0 0 0 0 0 0 0 0 0 0 0 0 0 0 0 0 0
0 0 0 0 0 0 0 0 0 0 1 2 3 3 2 1 0 0 0 0 0 0 0 0 0 0 0 0 0 0 0 0 0 0 0 0 0 0 0 0 0 0 0
0 0 0 0 0 0 0 0 0 0 0 1 1 2 2 1 0 0 0 0 0 0 0 0 0 0 0 0 0 0 0 0 0 0 0 0 0 0 0 0 0 0 0
0 0 0 0 0 0 0 0 0 0 0 0 0 1 1 0 0 0 0 0 0 0 0 0 0 0 0 0 0 0 0 0 0 0 0 0 0 0 0 0 0 0 0
0 0 0 0 0 0 0 0 0 0 0 0 0 0 0 0 0 0 0 0 0 0 0 0 0 0 0 0 0 0 0 0 0 0 0 0 0 0 0 0 0 0 0
0 0 0 0 0 0 0 0 0 0 0 0 0 0 0 0 0 0 0 0 0 0 0 0 0 0 0 0 0 0 0 0 0 0 0 0 0 0 0 0 0 0 0
0 0 0 0 0 0 0 0 0 0 0 0 0 0 0 0 0 0 0 0 0 0 0 0 0 0 0 0 0 0 0 0 0 0 0 0 0 0 0 0 0 0 0
0 0 0 0 0 0 0 0 0 0 0 0 0 0 0 0 0 0 0 0 0 0 0 0 0 0 0 0 0 0 0 0 0 0 0 0 0 0 0 0 0 0 0
0 0 0 0 0 0 0 0 0 0 0 0 0 0 0 0 0 0 0 0 0 0 0 0 0 0 0 0 0 0 0 0 0 0 0 0 0 0 0 0 0 0 0
0 0 0 0 0 0 0 0 0 0 0 0 0 0 0 0 0 0 0 0 0 0 0 0 0 0 0 0 0 0 0 0 0 0 0 0 0 0 0 0 0 0 0
0 0 0 0 0 0 0 0 0 0 0 0 0 0 0 0 0 0 0 0 0 0 0 0 0 0 0 0 0 0 0 0 0 0 0 0 0 0 0 0 0 0 0